Location: Sevilla
(37.3933°N, 5.9839°W)
Time: 05:03:00
(UTC+02:00)

Vanguard 3 - Pass Details

Date: 04 July 2024
Orbit: 508 x 3231 km, 33.4° (Epoch: 15 July)

Event Time Altitude Azimuth Distance (km) Brightness Sun altitude
Rises 06:41:01 0° 231° (SW) 7,093 - -5.5°
Exits shadow 06:43:27 - 229° (SW) 6,621 11.1 -5.1°
Reaches altitude 10° 06:45:53 10° 227° (SW) 6,146 11.0 -4.7°
Maximum altitude 07:04:40 55° 157° (SSE) 3,287 10.2 -1.5°
Drops below altitude 10° 07:18:24 10° 85° (E) 4,653 12.4 0.9°
Sets 07:21:29 0° 81° (E) 5,342 13.0 1.4°
